Regional Weather Roundup
Issued by NWS Grand Forks, ND

Home | Current Version | Previous Version | Text Only | Print | Product List | Glossary On
Versions: 1 2 3 4 5 6 7 8 9 10 11 12 13 14 15 16 17 18 19 20 21 22 23 24 25 26 27 28 29 30 31 32 33 34 35 36 37 38 39 40 41 42 43 44 45 46 47 48 49 50
000
ASUS43 KFGF 041610
RWRFGF
PRAIRIE TO PINES  WEATHER ROUNDUP
NATIONAL WEATHER SERVICE EASTERN NORTH DAKOTA/GRAND FORKS ND
1100 AM CDT SAT JUL 04 2015

 **SATELLITE DATA USED TO AUGMENT SKY COVER AT AUTOMATED STATIONS**
 *****  WEATHER ACROSS EASTERN NORTH DAKOTA  *****

CITY           SKY/WX    TMP DP  RH WIND       PRES   REMARKS
GRAND FORKS    CLOUDY    77  67  71 S10       29.83F HAZE
GRAND FRKS AFB SUNNY     77  67  70 S10       29.84S HAZE
GRAND FRKS NWS   N/A     77 N/A N/A S12         N/A
DEVILS LAKE    SUNNY     79  66  65 S12       29.81F
FARGO          SUNNY     79  67  66 SE9       29.86F HAZE
WAHPETON ARPT  SUNNY     77  64  65 S6        29.90S
$$

 ***** WEATHER ACROSS CENTRAL AND WESTERN NORTH DAKOTA  *****

CITY           SKY/WX    TMP DP  RH WIND       PRES   REMARKS
BISMARCK       SUNNY     78  68  71 SE8       29.81F
MINOT          SUNNY     80  62  54 S10       29.76S HAZE
JAMESTOWN      SUNNY     80  67  64 S12       29.84F
MINOT AFB      SUNNY     81  71  71 S10       29.74F
GARRISON         N/A     76  65  68 S10       29.78F
WILLISTON      SUNNY     80  63  55 SE7       29.74F
DICKINSON      SUNNY     78  65  63 S10       29.79S HAZE
HETTINGER      SUNNY     77  65  66 SE7       29.82F
$$

 *****  OTHER AIRPORT OBSERVATIONS IN OUR AREA  *****

CITY           SKY/WX    TMP DP  RH WIND       PRES   REMARKS
WALHALLA       FAIR      77  73  88 MISG      29.80F FOG
GRAFTON AIRPOR FAIR      77  68  73 S12       29.83F HAZE
VALLEY CITY AR FAIR      77  73  88 SE9       29.87S FOG
CANDO          FAIR      77  68  73 S13       29.81F HAZE
CAVALIER APRT  FAIR      75  66  73 S13       29.81F HAZE
GWINNER        FAIR      79  66  65 S9        29.88F
ROLLA            N/A     75  68  78 S13       29.81F
 ***** THE ABOVE OBSERVATIONS ARE NON NWS ARE NOT QUALITY
       CONTROLLED AND MAY MIS-REPORT RAIN FOR SNOW...
$$

  *****  WEATHER ACROSS NORTHERN MINNESOTA  *****

CITY           SKY/WX    TMP DP  RH WIND       PRES   REMARKS
FLAG ISLAND    MOSUNNY   72  63  73 S8        29.87F
WARROAD        SUNNY     73  64  73 S7        29.88F HAZE
ROSEAU         SUNNY     75  64  69 S10       29.87F HAZE
HALLOCK        SUNNY     75  66  73 S12       29.83S HAZE
THF RVR FALLS  SUNNY     75  64  69 S12       29.88F
BAUDETTE       SUNNY     73  60  63 S8        29.90F
WASKISH        SUNNY     75  61  60 SE5       29.92F
CROOKSTON      SUNNY     75  66  73 S10       29.86F HAZE
$$
  *****  WEATHER ACROSS CENTRAL AND WEST MINNESOTA  *****

CITY           SKY/WX    TMP DP  RH WIND       PRES   REMARKS
FOSSTON        SUNNY     73  63  68 S8        29.91F HAZE
BEMIDJI        SUNNY     74  59  58 S7        29.93S
PARK RAPIDS    MOSUNNY   76  57  51 SE9       29.93F HAZE
ELBOW LAKE     FAIR      76  68  76 S9        29.92S HAZE
WADENA         SUNNY     75  63  64 SE5       29.93S HAZE
DETROIT LAKES  SUNNY     77  63  61 SW8       29.93S HAZE
MOORHEAD       SUNNY     75  68  78 SE8       29.88F HAZE
FERGUS FALLS   SUNNY     75  66  73 S8        29.90F HAZE
MORRIS MN      SUNNY     79  66  65 SW5       29.92S
STAPLES        SUNNY     73  61  64 S3        29.94S HAZE
$$
  *****  WEATHER ELSEWHERE ACROSS MINNESOTA  *****

CITY           SKY/WX    TMP DP  RH WIND       PRES   REMARKS
DULUTH         SUNNY     71  60  68 SE8       29.97S
INTRNTL FALLS  MOSUNNY   74  58  57 S5        29.93F
ELY            SUNNY     72  55  56 SW3       29.97F
CLOQUET        SUNNY     72  59  64 SE3       29.97S
WHEATON        SUNNY     75  66  73 S7        29.92S
BRAINERD       SUNNY     76  60  57 SE6       29.94F HAZE
HIBBING        SUNNY     75  55  49 VRB5      29.96F
ALEXANDRIA     SUNNY     77  65  66 S7        29.95S HAZE
SAINT CLOUD    MOSUNNY   75  65  70 SE5       29.94S HAZE
MINNEAPOLIS    PTSUNNY   77  65  66 E3        29.94F
$$

  *****  WEATHER ACROSS SOUTH DAKOTA  *****

CITY           SKY/WX    TMP DP  RH WIND       PRES   REMARKS
SIOUX FALLS    MOSUNNY   75  65  70 S12       29.95F
BROOKINGS      SUNNY     73  64  73 S12       29.96S
WATERTOWN      SUNNY     76  65  68 S9        29.92F
HURON          MOSUNNY   76  67  73 SE10      29.87F
SISSETON         N/A     79  64  60 S9        29.88F
ABERDEEN       MOSUNNY   76  68  76 SE9       29.86F
MITCHELL       MOSUNNY   76  68  76 S10       29.91F
PIERRE         SUNNY     79  66  64 S8        29.83F
MOBRIDGE       SUNNY     78  69  73 S16       29.80S
RAPID CITY     SUNNY     79  66  64 S8        29.85S
$$

  *****  SOME WEATHER IN NEARBY STATES *****

CITY           SKY/WX    TMP DP  RH WIND       PRES   REMARKS
GLASGOW MT     SUNNY     82  55  39 W5        29.71S
GREAT FALLS MT SUNNY     74  53  48 NW17G25   29.89R
CHEYENNE WY    SUNNY     80  50  34 VRB3      30.06S
SCOTTSBLUFF NE SUNNY     77  62  59 VRB6      29.94S
OMAHA NE       MOSUNNY   75  59  57 SE7       30.00F
DES MOINES IA  MOSUNNY   77  60  55 S5        30.01F
DAVENPORT IA   SUNNY     74  59  59 W5        30.03S
CHICAGO IL     SUNNY     76  55  48 W3        30.00S
EAU CLAIRE WI  SUNNY     76  63  64 SW5       29.96R
LA CROSSE WI   SUNNY     75  60  59 S3        29.97R
$$

  *****  SOME NATIONAL WEATHER *****

CITY           SKY/WX    TMP DP  RH WIND       PRES   REMARKS
LA GUARDIA NY  CLOUDY    71  60  68 NE13      29.96R
RALEIGH NC     PTSUNNY   82  70  66 W13       29.99R
ATLANTA GA     HVY RAIN  70  66  88 SW6       30.14S FOG
NEW ORLEANS LA PTSUNNY   89  71  55 SW10      30.07F HX  95
OKLAHOMA CITY  MOSUNNY   81  73  76 SE7       29.98S
ALBUQUERQUE NM PTSUNNY   78  56  46 VRB5      30.17F
SALT LAKE CITY PTSUNNY   88  50  27 SE10      29.95R
LOS ANGELES CA CLOUDY    65  60  84 CALM      29.91R
BOISE ID       MOSUNNY   82  44  26 W6        29.87S
SEATTLE WA     MOSUNNY   67  55  65 CALM      29.90F
$$

*** WEATHER ACROSS MANITOBA...SASKATCHEWAN AND ONTARIO ***
                ***ONTARIO***

CITY           SKY/WX    TMP DP  RH WIND       PRES   REMARKS
GERALDTON      PTSUNNY   66  50  55 NW3       29.99S
THUNDER BAY    PTSUNNY   68  59  73 VRB3      29.98F
SIOUX LOOKOUT  SUNNY     70  59  68 S8        29.93F
TORONTO        PTSUNNY   73  52  46 VRB7      29.95S
BIG TROUT LK   SUNNY     66  54  63 S8        29.83F
PICKLE LAKE    CLOUDY    72  54  53 S13       29.90F
DRYDEN         SUNNY     72  55  56 S10G17    29.93S
KENORA         MOSUNNY   72  59  64 S12       29.89F
$$
                *** MANITOBA***

CITY           SKY/WX    TMP DP  RH WIND       PRES   REMARKS
BRANDON        PTSUNNY   77  70  78 W7        29.75F SMOKE
DAUPHIN        LGT RAIN  72  68  88 W9        29.73R FOG
ISLAND LAKE    TSTM      63  61  94 S9        29.69F
PILOT MOUND      N/A     75  68  78 S13         N/A
THE PAS          N/A     68  61  77 NW7       29.67S SMOKE
THOMPSON       CLOUDY    64  63  94 W8        29.57S SMOKE
WINNIPEG       SUNNY     75  66  73 S16       29.78F SMOKE
LYNN LAKE      CLOUDY    63  57  82 W10       29.62R HAZE
CHURCHILL      LGT RAIN  45  43  93 SE25G35   29.72S
$$
                ***SASKATCHEWAN***

CITY           SKY/WX    TMP DP  RH WIND       PRES   REMARKS
ESTEVAN        NOT AVBL
KINDERSLEY     PTSUNNY   63  55  77 NW7       29.85S
LLOYDMINSTER   CLOUDY    63  50  63 N10       29.88R SMOKE
PRINCE ALBERT    N/A     66  54  63 VRB2      29.77R SMOKE
REGINA         LGT RAIN  72  63  73 N8        29.76S
YORKTON        PTSUNNY   68  64  88 SE5       29.72F THUNDER FOG
N. BATTLEFORD  SUNNY     68  52  56 NW15G21   29.84F
LA RONGE       SMOKE     64  50  59 W6        29.76S VSB 1/4
SASKATOON      SMOKE     68  57  68 NW10G17   29.80R VSB 1
SWIFT CURRENT  PTSUNNY   68  55  64 N26G33    29.84R
$$
NOTE: THESE ARE AUTOMATED STATIONS WITH LIMITED QUALITY CONTROL
      "FAIR" INDICATES FEW OR NO CLOUDS BELOW 12,000 FEET WITH NO
      SIGNIFICANT WEATHER AND/OR OBSTRUCTIONS TO VISIBILITY.
      SKY/WX - SKY CONDITION AND SIGNIFICANT WEATHER.
      TMP - AIR TEMPERATURE.    DP   - DEWPOINT TEMPERATURE.
      RH  - RELATIVE HUMIDITY.  PRES - PRESSURE.
      HX  - HEAT INDEX.         WCI  - WIND CHILL INDEX.
$


USA.gov is the U.S. government's official web portal to all federal, state and local government web resources and services.